Regional Weather Roundup
Issued by NWS

Home | Current Version | Previous Version | Graphics & Text | Print | Product List | Glossary On
Versions: 1 2 3 4 5 6 7 8 9 10 11 12 13 14 15 16 17 18 19 20 21 22 23 24 25 26 27 28 29 30 31 32 33 34 35 36 37 38 39 40 41 42 43 44 45 46 47 48 49 50
000
ASUS43 KLMK 250702
RWRKY
KENTUCKY REGIONAL WEATHER ROUNDUP
NATIONAL WEATHER SERVICE LOUISVILLE KY
200 AM EST SUN JAN 25 2015

NOTE "FAIR" INDICATES FEW OR NO CLOUDS BELOW 12,000 FEET
WITH NO SIGNIFICANT WEATHER AND/OR OBSTRUCTIONS TO VISIBILITY.

KYZ001>023-026-027-061>063-070>075-250800-
WESTERN AND SOUTH CENTRAL KENTUCKY

CITY           SKY/WX    TMP DP  RH WIND       PRES   REMARKS
PADUCAH        PTCLDY    43  31  62 SW10      29.78F
HENDERSON      CLOUDY    41  30  65 S10       29.76F
OWENSBORO      MOCLDY    38  32  79 S7        29.79F WCI  33
HOPKINSVILLE   CLEAR     40  30  67 SW10      29.83F WCI  33
BOWLING GREEN  CLOUDY    36  28  73 S7        29.84F WCI  30
GLASGOW        NOT AVBL
$$

KYZ024-025-028>034-038-045-046-053-250800-
NORTH CENTRAL KENTUCKY

CITY           SKY/WX    TMP DP  RH WIND       PRES   REMARKS
LOUISVILLE/SDF CLOUDY    41  31  67 S6        29.78F
LOUISVILLE/LOU CLOUDY    38  31  76 S5        29.79F WCI  34
FORT KNOX      CLOUDY    37  30  78 S7        29.77F WCI  31
$$

KYZ035>037-039>044-047>052-055>060-089>105-250800-
NORTHEAST KENTUCKY

CITY           SKY/WX    TMP DP  RH WIND       PRES   REMARKS
LEXINGTON      MOCLDY    34  29  82 S9        29.81F WCI  27
COVINGTON      CLOUDY    35  30  82 S7        29.76F WCI  29
FRANKFORT      CLOUDY    35  30  82 S8        29.80S WCI  29
$$

KYZ054-064>069-076>088-106>120-250800-
SOUTHEAST KENTUCKY

CITY           SKY/WX    TMP DP  RH WIND       PRES   REMARKS
JACKSON        CLEAR     33  30  88 S6        29.83F WCI  28
LONDON         CLEAR     34  26  72 S3        29.86F
SOMERSET       NOT AVBL
MIDDLESBORO    CLEAR     27  26  97 CALM      29.89F
MONTICELLO     MOSUNNY   39  32  76 SW9       29.90S WCI  33
$$




USA.gov is the U.S. government's official web portal to all federal, state and local government web resources and services.